SCP
0 0 0 0 0 0 0 0 0 0 0 0 0 0 -0 0 0 -0 -0 0 0 0 0 0 0 0 0
0 0 0 0 0 0 0 0 0 0 0 0 -0 -0 -0 -0 0 0 0 -0 -0 -0 0 0 0 0 0
0 0 0 0 0 0 0 0 0 0 0 0 0 0 0 0 0 0 0 -0 -0 -0 -0 -0 0 0 0
0 0 0 0 0 0 0 0 0 0 0 0 0 0 0 0 0 0 -0 -0 0 0 0 0 0 0 0
0 0 0 0 0 0 0 0 0 0 0 0 0 0 0 0 0 0 0 0 0 0 0 0 0 0 0
0 0 0 0 0 0 0 -0 0 0 0 0 0 0 0 0 0 0 0 0 0 0 0 0 0 0 0
0 0 0 0 0 0 0 0 0 0 0 0 0 0 0 0 0 0 -0 -0 -0 -0 -0 -0 0 -0 -0
0 0 0 0 0 0 0 0 0 0 0 0 0 0 0 0 0 0 -0 0 -0 -0 -0 -0 -0 0 -0
0 0 0 0 0 0 0 0 0 0 0 0 0 0 0 0 0 0 0 0 0 0 -0 0 -0 0 0
0 0 0 0 0 0 0 0 0 0 0 0 0 0 0 0 0 0 0 0 0 0 0 -0 0 0 0
0 0 0 0 0 0 0 0 0 0 0 0 0 0 0 -0 0 0 0 0 0 0 0 0 0 0 0
0 0 0 0 0 0 0 0 0 0 0 0 0 0 0 0 0 0 0 0 0 0 0 0 0 0 0
0 0 0 0 0 0 0 0 0 0 0 0 0 0 0 0 0 0 0 0 0 0 0 0 0 0 0
0 0 0 0 0 0 0 0 0 0 0 0 0 -0 -0 0 0 0 0 0 0 0 0 0 0 0 0
0 0 0 0 0 0 0 0 0 0 0 0 0 -0 -0 0 0 0 0 0 0 0 0 0 0 0 0
0 0 0 0 0 0 0 0 0 0 0 0 0 -0 -0 0 0 0 0 0 0 0 0 0 0 0 0
0 0 0 0 0 0 0 0 0 0 0 0 -0 -0 -0 -0 0 0 0 -0 0 0 0 0 0 0 0
Wind_Speed_500mb
88 86 73 69 65 62 61 75 80 72 73 73 74 75 76 78 81 82 82 84 85 86 85 85 86 84 85
88 89 83 72 67 63 87 68 70 72 69 69 76 77 74 74 77 79 81 81 82 82 83 84 84 85 84
87 92 82 67 88 79 80 68 73 75 71 73 71 70 71 72 76 79 82 83 83 83 83 85 87 88 87
77 65 84 86 78 75 84 77 80 80 82 73 73 73 75 77 77 77 77 77 78 79 80 81 82 84 84
73 82 82 75 74 79 81 84 86 79 84 62 84 91 89 80 76 75 70 70 72 74 76 77 78 80 82
78 74 76 70 80 75 78 88 94 66 74 97 86 93 86 82 83 75 75 76 77 77 79 80 82 83 82
68 64 77 75 79 93 86 79 84 89 91 95 93 91 86 89 85 69 57 66 70 72 74 76 79 82 83
59 69 69 76 75 70 74 77 83 84 66 84 89 88 96 94 72 56 71 63 65 67 70 71 72 75 79
58 61 68 58 52 54 66 69 85 85 80 55 67 94 97 90 72 83 77 68 68 64 66 70 75 76 80
68 61 55 50 49 48 55 65 74 70 67 64 82 70 59 63 90 92 87 79 74 70 62 64 68 75 82
60 61 58 57 57 54 58 58 66 69 71 62 78 79 61 81 104 98 86 91 83 66 53 57 57 55 71
59 63 64 66 62 60 61 56 55 64 61 51 66 69 78 91 94 92 87 86 77 60 71 62 57 58 59
63 65 65 64 64 67 60 59 60 58 53 51 55 64 71 81 87 83 88 94 57 80 69 63 50 45 42
65 67 66 66 67 67 66 68 72 67 57 56 56 61 68 65 59 69 79 67 92 75 61 49 39 32 23
65 68 66 68 67 63 62 65 68 73 74 66 60 59 56 51 51 59 74 82 82 66 55 46 36 22 14
64 66 67 68 67 62 59 63 67 67 72 72 69 71 69 62 35 54 72 83 86 64 48 46 41 24 10
65 62 63 63 63 61 61 63 63 63 69 62 62 61 61 59 44 48 66 78 84 75 47 48 35 24 11
Wind_Direction_500mb
308 316 314 312 310 308 306 306 303 301 300 300 297 293 291 289 287 285 282 280 277 275 273 270 267 264 261
311 315 314 314 310 308 310 308 304 306 303 302 296 293 292 291 288 285 282 280 277 275 272 268 265 261 260
302 310 311 311 311 310 314 311 311 309 307 303 301 298 296 294 290 286 283 279 277 275 272 269 265 263 260
298 306 309 310 312 311 312 315 312 313 313 306 305 301 298 296 292 288 284 280 276 273 269 266 264 261 258
314 309 309 311 311 314 308 312 310 313 310 310 307 310 313 310 305 302 289 285 280 276 271 267 264 261 257
309 305 306 308 313 310 310 311 311 316 308 307 314 314 316 317 315 302 293 286 280 276 272 268 265 260 257
303 302 307 311 314 311 310 305 304 308 318 308 323 312 320 320 320 316 302 290 285 279 274 269 265 260 257
305 307 307 305 304 302 303 306 308 316 314 300 323 316 322 320 323 322 325 297 290 284 278 272 267 261 256
307 304 310 311 310 310 312 316 314 317 327 307 313 315 321 324 331 329 322 311 308 302 287 274 265 261 257
313 317 321 324 329 320 319 318 316 314 325 314 318 323 319 316 321 328 331 328 322 314 302 284 272 263 256
321 328 333 332 332 330 329 323 317 306 329 319 314 321 309 305 321 328 330 332 328 324 315 309 300 275 253
330 334 334 334 335 333 331 329 322 318 330 329 314 318 316 308 303 323 332 332 329 315 321 321 310 293 259
331 333 335 333 333 335 336 336 332 336 338 339 332 331 322 303 301 322 328 330 334 326 328 326 318 304 279
334 335 334 334 336 337 338 342 339 341 346 349 346 340 326 328 322 326 335 318 332 337 333 330 325 314 269
336 336 337 336 337 339 340 342 340 340 342 349 353 346 344 340 324 341 337 337 343 346 347 350 354 324 302
338 339 339 339 339 341 342 344 340 342 344 349 350 352 352 356 352 347 356 350 354 358 2 4 7 2 332
340 341 341 341 341 342 344 344 341 343 345 348 354 352 339 329 346 9 3 4 2 6 9 24 24 25 37
Wind_Speed_850mb
88 86 73 69 65 62 61 75 80 72 73 73 74 75 76 78 81 82 82 84 85 86 85 85 86 84 85
88 89 83 72 67 63 87 68 70 72 69 69 76 77 74 74 77 79 81 81 82 82 83 84 84 85 84
87 92 82 67 88 79 80 68 73 75 71 73 71 70 71 72 76 79 82 83 83 83 83 85 87 88 87
77 65 84 86 78 75 84 77 80 80 82 73 73 73 75 77 77 77 77 77 78 79 80 81 82 84 84
73 82 82 75 74 79 81 84 86 79 84 62 84 91 89 80 76 75 70 70 72 74 76 77 78 80 82
78 74 76 70 80 75 78 88 94 66 74 97 86 93 86 82 83 75 75 76 77 77 79 80 82 83 82
68 64 77 75 79 93 86 79 84 89 91 95 93 91 86 89 85 69 57 66 70 72 74 76 79 82 83
59 69 69 76 75 70 74 77 83 84 66 84 89 88 96 94 72 56 71 63 65 67 70 71 72 75 79
58 61 68 58 52 54 66 69 85 85 80 55 67 94 97 90 72 83 77 68 68 64 66 70 75 76 80
68 61 55 50 49 48 55 65 74 70 67 64 82 70 59 63 90 92 87 79 74 70 62 64 68 75 82
60 61 58 57 57 54 58 58 66 69 71 62 78 79 61 81 104 98 86 91 83 66 53 57 57 55 71
59 63 64 66 62 60 61 56 55 64 61 51 66 69 78 91 94 92 87 86 77 60 71 62 57 58 59
63 65 65 64 64 67 60 59 60 58 53 51 55 64 71 81 87 83 88 94 57 80 69 63 50 45 42
65 67 66 66 67 67 66 68 72 67 57 56 56 61 68 65 59 69 79 67 92 75 61 49 39 32 23
65 68 66 68 67 63 62 65 68 73 74 66 60 59 56 51 51 59 74 82 82 66 55 46 36 22 14
64 66 67 68 67 62 59 63 67 67 72 72 69 71 69 62 35 54 72 83 86 64 48 46 41 24 10
65 62 63 63 63 61 61 63 63 63 69 62 62 61 61 59 44 48 66 78 84 75 47 48 35 24 11
Wind_Direction_850mb
308 316 314 312 310 308 306 306 303 301 300 300 297 293 291 289 287 285 282 280 277 275 273 270 267 264 261
311 315 314 314 310 308 310 308 304 306 303 302 296 293 292 291 288 285 282 280 277 275 272 268 265 261 260
302 310 311 311 311 310 314 311 311 309 307 303 301 298 296 294 290 286 283 279 277 275 272 269 265 263 260
298 306 309 310 312 311 312 315 312 313 313 306 305 301 298 296 292 288 284 280 276 273 269 266 264 261 258
314 309 309 311 311 314 308 312 310 313 310 310 307 310 313 310 305 302 289 285 280 276 271 267 264 261 257
309 305 306 308 313 310 310 311 311 316 308 307 314 314 316 317 315 302 293 286 280 276 272 268 265 260 257
303 302 307 311 314 311 310 305 304 308 318 308 323 312 320 320 320 316 302 290 285 279 274 269 265 260 257
305 307 307 305 304 302 303 306 308 316 314 300 323 316 322 320 323 322 325 297 290 284 278 272 267 261 256
307 304 310 311 310 310 312 316 314 317 327 307 313 315 321 324 331 329 322 311 308 302 287 274 265 261 257
313 317 321 324 329 320 319 318 316 314 325 314 318 323 319 316 321 328 331 328 322 314 302 284 272 263 256
321 328 333 332 332 330 329 323 317 306 329 319 314 321 309 305 321 328 330 332 328 324 315 309 300 275 253
330 334 334 334 335 333 331 329 322 318 330 329 314 318 316 308 303 323 332 332 329 315 321 321 310 293 259
331 333 335 333 333 335 336 336 332 336 338 339 332 331 322 303 301 322 328 330 334 326 328 326 318 304 279
334 335 334 334 336 337 338 342 339 341 346 349 346 340 326 328 322 326 335 318 332 337 333 330 325 314 269
336 336 337 336 337 339 340 342 340 340 342 349 353 346 344 340 324 341 337 337 343 346 347 350 354 324 302
338 339 339 339 339 341 342 344 340 342 344 349 350 352 352 356 352 347 356 350 354 358 2 4 7 2 332
340 341 341 341 341 342 344 344 341 343 345 348 354 352 339 329 346 9 3 4 2 6 9 24 24 25 37